Regional Weather Roundup
Issued by NWS

Home | Current Version | Previous Version | Graphics & Text | Print | Product List | Glossary On
Versions: 1 2 3 4 5 6 7 8 9 10 11 12 13 14 15 16 17 18 19 20 21 22 23 24 25 26 27 28 29 30 31 32 33 34 35 36 37 38 39 40 41 42 43 44 45 46 47 48 49 50
000
ASUS43 KFSD 200710
RWRSD

WEATHER ROUNDUP FOR SOUTH DAKOTA
NATIONAL WEATHER SERVICE SIOUX FALLS SD
100 AM CST MON NOV 20 2017

NOTE: "FAIR" INDICATES FEW OR NO CLOUDS BELOW 12,000 FEET WITH NO
SIGNIFICANT WEATHER AND/OR OBSTRUCTIONS TO VISIBILITY.


SDZ001>005-009-010-012>017-200800-
NORTHWEST AND NORTH CENTRAL SOUTH DAKOTA

CITY           SKY/WX    TMP DP  RH WIND       PRES   REMARKS
BUFFALO          N/A     35  20  54 W14       29.55F WCI  26
FAITH            N/A     33  22  63 SW9       29.63F WCI  25
MOBRIDGE       CLOUDY    31  26  82 SE9       29.60F WCI  23
$$

SDZ012>016-024>037-041>051-057-063-072>074-200800-
SOUTHWEST AND SOUTH CENTRAL SOUTH DAKOTA

CITY           SKY/WX    TMP DP  RH WIND       PRES   REMARKS
RAPID CTY ARPT CLOUDY    26  15  63 CALM      29.67F
PIERRE         CLOUDY    28  20  71 W3        29.65F
CUSTER         CLOUDY    36  10  34 W9        29.74F
ELLSWORTH AFB  CLOUDY    39  15  36 SW8       29.66F
PHILIP         CLOUDY    29  21  72 W12       29.67F WCI  19
PINE RIDGE     CLOUDY    39  14  36 W12       29.76F
SPEARFISH      FAIR      52   5  15 SW16G30   29.67S
WINNER         FAIR      40  21  46 SW13      29.69F
$$

SDZ004>011-016>023-039-040-200800-
NORTHEAST SOUTH DAKOTA

CITY           SKY/WX    TMP DP  RH WIND       PRES   REMARKS
ABERDEEN       CLOUDY    20  18  92 SE3       29.68F
WATERTOWN      CLOUDY    28  22  78 S7        29.70F WCI  21
BROOKINGS      CLOUDY    33  23  66 SE5       29.73F WCI  29
SISSETON         N/A     30  23  75 S7        29.69F WCI  23
$$

SDZ017-020-022-023-036>040-048>070-200800-
SOUTHEAST SOUTH DAKOTA

CITY           SKY/WX    TMP DP  RH WIND       PRES   REMARKS
SIOUX FALLS    CLOUDY    30  23  75 CALM      29.74F
HURON          CLOUDY    32  24  72 SE8       29.68F WCI  25
CHAMBERLAIN    CLOUDY    32  23  71 S7        29.67F WCI  25
MITCHELL       CLOUDY    28  22  78 SE7       29.71F WCI  21
YANKTON        CLOUDY    42  25  50 S9        29.74F
$$

ABBREVIATIONS USED IN REMARKS
   TC - TEMPERATURE IN CELSIUS
  WCI - WIND CHILL INDEX
   HX - HEAT INDEX
  VSB - VISIBILITY





USA.gov is the U.S. government's official web portal to all federal, state and local government web resources and services.